GW0720 Weather Reports


Display with metric or nautical units.
time (UTC)temp
F
wind
direction
speed
MPH
gust
MPH
rain 1hr
in
rain 24hr
in
rain mn
in
humidity
%
barometer
mb
20260507151559 56 0 0.0 3.0 0.00 0.11 0.10 84 1012.8
20260507150054 56 0 0.0 9.0 0.00 0.11 0.10 80 1013.1
20260507144554 57 0 0.0 3.0 0.00 0.19 0.10 80 1012.7
20260507143102 57 0 1.0 6.0 0.00 0.19 0.10 78 1012.7
20260507141558 57 250 1.0 4.0 0.00 0.19 0.10 81 1012.9
20260507140057 57 0 1.0 4.0 0.00 0.19 0.10 79 1013.1
20260507134606 57 336 1.0 7.0 0.00 0.19 0.10 83 1013.0
20260507133058 57 0 1.0 7.0 0.00 0.19 0.10 85 1012.6
20260507131559 57 309 1.0 9.0 0.00 0.19 0.10 84 1012.6
20260507130107 57 0 0.0 8.0 0.00 0.19 0.10 86 1012.5
20260507124615 57 0 0.0 4.0 0.00 0.19 0.10 91 1012.5
20260507123107 56 0 0.0 3.0 0.00 0.19 0.10 91 1012.6
20260507121609 56 243 0.0 3.0 0.00 0.19 0.10 91 1012.3
20260507120104 55 0 0.0 4.0 0.00 0.19 0.10 91 1012.3
20260507114555 55 273 0.0 5.0 0.00 0.19 0.10 91 1012.6
20260507113055 55 0 0.0 2.0 0.00 0.19 0.10 92 1012.4
20260507111555 55 0 0.0 3.0 0.00 0.19 0.10 92 1012.1
20260507110056 55 0 0.0 2.0 0.01 0.19 0.10 92 1012.1
20260507104615 55 0 1.0 3.0 0.01 0.19 0.10 92 1011.8
20260507103057 56 0 0.0 0.0 0.04 0.19 0.10 92 1011.6
20260507101600 56 0 0.0 7.0 0.08 0.19 0.10 91 1011.3
20260507100111 56 112 0.0 2.0 0.08 0.18 0.09 92 1011.8
20260507094555 57 168 0.0 3.0 0.09 0.18 0.09 92 1011.7
20260507093100 57 0 0.0 5.0 0.05 0.14 0.05 92 1012.0
20260507091600 58 0 0.0 8.0 0.02 0.11 0.02 91 1011.7
20260507090054 58 0 1.0 8.0 0.01 0.10 0.01 89 1011.5
20260507084602 60 0 1.0 10.0 0.00 0.09 0.00 88 1011.3
20260507083108 62 261 3.0 9.0 0.00 0.09 0.00 85 1011.3
20260507081604 66 242 2.0 7.0 0.00 0.09 0.00 87 1010.8
20260507080107 67 0 0.0 2.0 0.00 0.09 0.00 88 1010.6
20260507074605 67 0 0.0 2.0 0.00 0.09 0.00 87 1009.9
20260507073100 67 0 0.0 3.0 0.00 0.09 0.00 87 1010.3
20260507071551 67 0 0.0 2.0 0.00 0.09 0.00 87 1010.2
20260507070051 67 0 0.0 3.0 0.00 0.09 0.00 87 1010.2
20260507064552 67 0 0.0 2.0 0.00 0.09 0.00 87 1009.9
20260507063052 68 0 0.0 2.0 0.00 0.09 0.00 86 1009.7
20260507061553 68 0 0.0 1.0 0.00 0.09 0.00 86 1009.4
20260507060057 68 0 0.0 3.0 0.00 0.09 0.00 85 1009.5
20260507054553 69 0 0.0 3.0 0.00 0.09 0.00 84 1009.9
20260507053055 69 319 0.0 5.0 0.00 0.09 0.00 84 1009.7
20260507051555 69 18 0.0 4.0 0.00 0.09 0.00 84 1010.0
20260507050052 69 0 0.0 3.0 0.00 0.09 0.00 84 1010.6
20260507044554 69 0 0.0 3.0 0.00 0.09 0.00 84 1010.8
20260507043053 69 0 0.0 8.0 0.00 0.09 0.00 84 1011.0
20260507041555 69 0 0.0 7.0 0.00 0.09 0.00 84 1011.0
20260507040052 68 11 0.0 7.0 0.00 0.09 0.00 85 1010.7
20260507034556 68 350 0.0 2.0 0.00 0.09 0.09 86 1011.0
20260507033101 67 0 0.0 3.0 0.00 0.09 0.09 88 1011.0
20260507031551 67 0 0.0 1.0 0.00 0.09 0.09 88 1010.6
20260507030054 66 61 0.0 2.0 0.00 0.09 0.09 89 1010.4
20260507024613 66 0 0.0 2.0 0.00 0.09 0.09 89 1010.2
20260507023054 66 0 0.0 2.0 0.00 0.09 0.09 90 1010.6
20260507021554 66 0 0.0 1.0 0.00 0.09 0.09 90 1010.7
20260507020109 65 0 0.0 0.0 0.00 0.09 0.09 90 1011.0
20260507014604 65 0 0.0 1.0 0.00 0.09 0.09 90 1011.1
20260507013054 65 0 0.0 0.0 0.00 0.09 0.09 90 1011.0
20260507011553 65 0 0.0 0.0 0.00 0.09 0.09 89 1010.9
20260507010056 66 0 0.0 0.0 0.00 0.09 0.09 87 1010.8
20260507004557 67 0 0.0 0.0 0.00 0.09 0.09 86 1010.9
20260507003058 67 0 0.0 0.0 0.00 0.09 0.09 85 1011.0
20260507001601 69 0 0.0 2.0 0.00 0.09 0.09 83 1011.0
20260506234609 70 0 0.0 6.0 0.00 0.09 0.09 81 1010.6
20260506231602 71 56 0.0 4.0 0.00 0.09 0.09 79 1010.6
20260506230059 71 47 0.0 3.0 0.00 0.09 0.09 78 1010.7
20260506224554 71 0 0.0 7.0 0.00 0.09 0.09 79 1010.7
20260506223057 71 0 1.0 4.0 0.00 0.09 0.09 78 1010.6
20260506221553 71 0 0.0 4.0 0.00 0.09 0.09 79 1010.7
20260506220055 71 73 0.0 5.0 0.00 0.09 0.09 77 1010.5
20260506214555 72 280 1.0 8.0 0.00 0.09 0.09 77 1010.7
20260506213113 72 42 1.0 8.0 0.00 0.09 0.09 75 1010.6
20260506211611 71 271 1.0 4.0 0.00 0.09 0.09 77 1010.8
20260506210101 72 0 1.0 7.0 0.00 0.09 0.09 77 1010.7
20260506204600 71 0 0.0 4.0 0.00 0.09 0.09 83 1010.8
20260506203058 70 0 0.0 3.0 0.00 0.09 0.09 82 1010.6
20260506201609 70 0 0.0 3.0 0.00 0.09 0.09 83 1010.8
20260506200059 69 0 0.0 2.0 0.00 0.09 0.09 84 1010.8
20260506194619 69 0 0.0 3.0 0.00 0.09 0.09 85 1010.2
20260506193055 68 38 0.0 4.0 0.01 0.09 0.09 84 1010.1
20260506191554 67 43 0.0 5.0 0.01 0.09 0.09 85 1010.7
20260506190055 66 0 0.0 5.0 0.01 0.09 0.09 88 1011.0
20260506184606 66 0 1.0 4.0 0.01 0.09 0.09 87 1011.0
20260506183101 66 50 1.0 8.0 0.00 0.08 0.08 86 1011.1
20260506181601 66 0 1.0 3.0 0.00 0.08 0.08 85 1011.8
20260506174603 66 57 1.0 9.0 0.00 0.08 0.08 84 1012.0
20260506173054 66 15 1.0 5.0 0.00 0.08 0.08 85 1011.9
20260506171555 66 19 2.0 8.0 0.00 0.08 0.08 85 1011.7
20260506170109 65 281 0.0 5.0 0.00 0.08 0.08 86 1012.0
20260506164556 65 348 1.0 7.0 0.00 0.08 0.08 86 1012.1
20260506163110 65 281 0.0 6.0 0.00 0.08 0.08 87 1012.2
20260506161553 64 68 1.0 9.0 0.00 0.08 0.08 88 1012.0
20260506160053 63 70 1.0 6.0 0.00 0.08 0.08 89 1011.9
20260506154555 63 0 0.0 4.0 0.00 0.08 0.08 89 1012.2
20260506153053 63 44 0.0 7.0 0.04 0.08 0.08 91 1012.8